Location: Unspecified
(0.0000°N, 0.0000°E)
Time: 09:42:36
(UTC+00:00)

Vanguard 3 - Pass Details

Date: 27 September 2023
Orbit: 507 x 3241 km, 33.3° (Epoch: 06 December)

Event Time Altitude Azimuth Distance (km) Brightness Sun altitude
Rises 16:42:08 0° 251° (WSW) 7,168 13.4 17.2°
Reaches altitude 10° 16:47:42 10° 257° (WSW) 6,001 13.8 15.8°
Maximum altitude 17:03:48 41° 320° (NW) 3,172 10.8 11.8°
Drops below altitude 10° 17:14:22 10° 27° (NNE) 3,967 10.4 9.2°
Sets 17:17:16 0° 36° (NE) 4,618 10.7 8.4°
